Home   Weather   Bologna   Past weeks

Flag for Italy Past Weather in Bologna, Italy — Yesterday and Last 2 Weeks

Now
37 °F

Clear.


Feels Like: 33 °F
Forecast: 34 / 52 °F
Wind: 6 mph from Southwest

Location: Bologna / Borgo Panigale

Current Time: Feb 26, 2017 at 12:13:00 am

Latest Report: Feb 25, 2017 at 11:20 pm


Visibility: 10 mi

Pressure: 30.21 "Hg

Humidity: 75%

Dew Point: 30 °F

Location of BolognaLocation

Past Weather in Bologna — Graph

°F

Bologna Temperature Yesterday

Maximum temperature yesterday: 55 °F (at 1:20 pm)
Minimum temperature yesterday: 39 °F (at 7:20 am)
Average temperature yesterday: 46 °F

High & Low Weather Summary for the Past Weeks

 TemperatureHumidityPressure
High61 °F (Feb 16, 1:50 pm)100% (Feb 14, 2:20 am)30.60 "Hg (Feb 14, 2:20 am)
Low30 °F (Feb 19, 4:50 am)33% (Feb 25, 2:20 pm)29.71 "Hg (Feb 24, 1:20 pm)
Average44 °F82%30.23 "Hg
* Reported Feb 10 10:20 pm — Feb 25 10:50 pm, Bologna, Weather by CustomWeather, © 2017

Note: Actual official high and low records may vary slightly from our data, if they occured in-between our weather recording intervals... More about our weather records

Advertising

Bologna Weather History for the Previous 24 Hours

Scroll right to see more
 ConditionsComfort  
Time TempWeatherWind HumidityBarometerVisibility
10:50 pm
Sat, Feb 25
39 °FClear.8 mph75%30.21 "Hg10 mi
10:20 pm39 °FClear.8 mph75%30.21 "Hg10 mi
9:50 pm39 °FClear.7 mph75%30.21 "Hg10 mi
9:20 pm39 °FClear.6 mph75%30.21 "Hg10 mi
8:50 pm41 °FClear.3 mph70%30.21 "Hg10 mi
8:20 pm41 °FClear.2 mph66%30.21 "Hg10 mi
7:50 pm41 °FClear.2 mph66%30.21 "Hg10 mi
7:20 pm45 °FClear.2 mph57%30.21 "Hg10 mi
6:50 pm45 °FClear.3 mph57%30.18 "Hg10 mi
6:20 pm46 °FClear.6 mph53%30.18 "Hg10 mi
5:50 pm50 °FSunny.5 mph43%30.18 "Hg10 mi
5:20 pm52 °FSunny.7 mph41%30.18 "Hg10 mi
4:50 pm52 °FPassing clouds.9 mph41%30.15 "HgN/A
4:20 pm54 °FPassing clouds.9 mph35%30.15 "HgN/A
3:50 pm54 °FPassing clouds.8 mph38%30.18 "HgN/A
3:20 pm54 °FPassing clouds.9 mph35%30.18 "HgN/A
2:50 pm55 °FPassing clouds.9 mph36%30.15 "HgN/A
2:20 pm55 °FPassing clouds.10 mph33%30.15 "HgN/A
1:50 pm54 °FPassing clouds.14 mph38%30.15 "HgN/A
1:20 pm55 °FPassing clouds.13 mph36%30.18 "HgN/A
12:50 pm54 °FPassing clouds.13 mph41%30.18 "HgN/A
12:20 pm54 °FPassing clouds.8 mph54%30.18 "HgN/A
11:50 am52 °FPassing clouds.8 mph54%30.21 "HgN/A
11:20 am50 °FPassing clouds.5 mph62%30.21 "HgN/A
10:50 am50 °FPassing clouds.6 mph58%30.21 "HgN/A
10:20 am48 °FPassing clouds.5 mph66%30.21 "HgN/A
9:50 am46 °FPassing clouds.5 mph76%30.18 "HgN/A
9:20 am46 °FPassing clouds.5 mph82%30.18 "HgN/A
8:50 am45 °FPassing clouds.5 mph87%30.18 "HgN/A
8:20 am43 °FPassing clouds.5 mph93%30.15 "HgN/A
7:50 am39 °FPassing clouds.3 mph100%30.12 "HgN/A
7:20 am39 °FScattered clouds.No wind93%30.12 "HgN/A
6:50 am41 °FPassing clouds.1 mph93%30.09 "HgN/A
6:20 am41 °FPassing clouds.6 mph93%30.09 "HgN/A
5:50 am41 °FPassing clouds.6 mph93%30.09 "HgN/A
5:20 am41 °FPassing clouds.7 mph93%30.07 "HgN/A
4:50 am41 °FPassing clouds.6 mph93%30.07 "HgN/A
4:20 am43 °FPartly cloudy.7 mph87%30.04 "HgN/A
3:50 am43 °FPartly cloudy.9 mph87%30.04 "HgN/A
3:20 am43 °FPassing clouds.12 mph87%30.04 "HgN/A
2:50 am43 °FPassing clouds.12 mph87%30.04 "HgN/A
2:20 am43 °FPassing clouds.13 mph87%30.04 "HgN/A
1:50 am43 °FLight rain. Partly cloudy.15 mph87%30.01 "HgN/A
1:20 am43 °FLight rain. Passing clouds.15 mph87%30.01 "HgN/A
12:50 am45 °FLight rain. Passing clouds.13 mph87%29.98 "HgN/A
12:20 am45 °FLight rain. Partly cloudy.16 mph93%29.92 "Hg4 mi
Weather by CustomWeather, © 2017

See weather overviewHow to use our weather pages